NOAA 16 DEB, 41089

Orbit data source: Space-Track

NOAA 16 DEB, 41089 is space debris in SSO originally from a launch on Thu, 21 Sep 2000 UTC launched from the Air Force Western Test Range (AFWTR). Debris objects in space refer to the collection of defunct objects orbiting the Earth. Examples of debris include non-operational satellites, rocket bodies, and fragments generated from explosions, collisions, or faulty payload assembly.

Loading next visibility...
Identifier
41089, 2000-055AY
Orbit
SSO
Country
Flag of USUS
Related business
Manufacturer
Unknown
Mission
Spacecraft
Bus & Motor
Unknown
Mass
Unknown
Launch date (UTC)
2000-09-21 (26 years ago)
Launch vehicle
Unknown
Launch site
Air Force Western Test Range (AFWTR)
Object type
Payload
Rocket body
Debris
Shape & HBR
Unknown shape, 0.1 m
Radar Cross Section
Medium (>0.1 m² and <1 m²)

Expand to show TLE details & history
Last TLE update: 10 hours ago

TLE from 10 hours ago
0 NOAA 16 DEB
1 41089U 00055AY  26254.47377403  .00002976  00000-0  10593-2 0  9990
2 41089  98.6855 337.8737 0006362 218.5983 141.4748 14.35049906557991
Epoch: 2026-09-11T11:22Z
TLE epoch observation values (Epoch: 2026-09-11T11:22:14.076Z)
Latitude
0.00002°
Longitude
176.81843°
Altitude
781.398 km
Speed
7.461 km/s
True Right ascension
22h 31m 29s
True Declination
0° 00' 00"
Sunlit
Object was in full shadow at epoch
Visualization orbit readout
Latitude
Unknown
Longitude
Unknown
Altitude
Unknown
Speed
Unknown
Apparent Right ascension
Unknown
Apparent Declination
Unknown
Sunlit
N/A
Visualization observer readout
Local Sidereal Time
13:18:27
Azimuth
Unknown
Elevation
Unknown
Doppler factor
Unknown
Orbital elements
Apogee altitude
776.587 km
Perigee altitude
767.489 km
Semi-major axis
7,150.175 km
Eccentricity
0.00064
Inclination
98.6855°
RAAN
337.8737°
Arg. of periapsis
218.5983°
True anomaly
141.52018°
Mean anomaly
141.4748°
Eccentric anomaly
141.49749°
Mean motion
3.58978 °/min
Orbital period
100.28 mins
BSTAR
0.0010593
Loading maneuver chart data...
Computing Atmospheric mass density...
Loading historical data...
Loading historical data...
Loading historical data...
Loading historical data...
Loading historical data...
Loading historical data...
Loading historical data...

Documentation

Showing up to 5 results
|